Location: Bonningues
(50.7927°N, 2.0150°E)
Time: 21:00:37
(UTC+00:00)

Cosmos 540 Rocket - Pass Details

Date: 08 August 2020
Orbit: 740 x 754 km, 74.1° (Epoch: 22 September)

Event Time Altitude Azimuth Distance (km) Brightness Sun altitude
Rises 21:33:20 0° 338° (NNW) 3,211 8.3 -16.3°
Reaches altitude 10° 21:35:50 10° 346° (NNW) 2,285 7.1 -16.5°
Maximum altitude 21:40:46 43° 57° (ENE) 1,062 4.2 -17.0°
Enters shadow 21:43:20 25° 113° (ESE) 1,500 4.5 -17.2°
